Location: McCall
(45.0000°N, 116.0000°W)
Time: 10:57:20
(UTC-06:00)

Saudisat 1A - Visible Passes

Search period start: 25 September 2017 00:00
Search period end: 05 October 2017 00:00
Orbit: 582 x 610 km, 64.6° (Epoch: 24 September)

Date Brightness Start Highest point End Pass type
(mag) Time Alt. Az. Time Alt. Az. Time Alt. Az.
25 Sep 11.1 03:39:47 11° ENE 03:39:47 11° ENE 03:40:02 10° ENE visible
25 Sep 8.7 05:16:27 45° NNW 05:16:27 45° NNW 05:20:06 10° NNE visible
25 Sep 10.2 06:54:34 10° NW 06:56:14 12° NNW 06:57:54 10° N visible
26 Sep 10.9 03:49:41 14° NE 03:49:41 14° NE 03:50:26 10° NE visible
26 Sep 9.2 05:26:20 30° NNW 05:26:20 30° NNW 05:29:48 10° NNE visible
27 Sep 10.8 03:59:32 17° NE 03:59:32 17° NE 04:00:32 10° NE visible
27 Sep 9.7 05:36:11 21° NW 05:36:11 21° NW 05:39:24 10° NNE visible
28 Sep 10.6 04:09:20 18° NNE 04:09:20 18° NNE 04:10:28 10° NNE visible
28 Sep 10.1 05:45:59 15° NW 05:46:12 15° NNW 05:48:50 10° N visible
29 Sep 10.6 04:19:07 17° NNE 04:19:07 17° NNE 04:20:16 10° NNE visible
29 Sep 10.4 05:55:46 11° NW 05:56:31 11° NNW 05:57:50 10° N visible
30 Sep 10.6 04:28:51 16° N 04:28:51 16° N 04:29:57 10° NNE visible
01 Oct 10.6 04:38:35 14° N 04:38:35 14° N 04:39:30 10° N visible
02 Oct 10.7 04:48:17 12° N 04:48:17 12° N 04:48:53 10° N visible
